Year,Month,Day,Hour,Minute,Value (Times are PST for temperature in C)
2016,08,20,00,00,21.80
2016,08,20,00,01,21.80
2016,08,20,00,02,21.90
2016,08,20,00,03,21.90
2016,08,20,00,04,21.90
2016,08,20,00,05,21.90
2016,08,20,00,06,21.90
2016,08,20,00,07,21.80
2016,08,20,00,08,21.80
2016,08,20,00,09,21.80
2016,08,20,00,10,21.70
2016,08,20,00,11,21.60
2016,08,20,00,12,21.50
2016,08,20,00,13,21.40
2016,08,20,00,14,21.30
2016,08,20,00,15,21.20
2016,08,20,00,16,21.20
2016,08,20,00,17,21.10
2016,08,20,00,18,21.10
2016,08,20,00,19,21.00
2016,08,20,00,20,21.00
2016,08,20,00,21,20.90
2016,08,20,00,22,20.90
2016,08,20,00,23,20.80
2016,08,20,00,24,20.80
2016,08,20,00,25,20.70
2016,08,20,00,26,20.70
2016,08,20,00,27,20.60
2016,08,20,00,28,20.60
2016,08,20,00,29,20.50
2016,08,20,00,30,20.50
2016,08,20,00,31,20.40
2016,08,20,00,32,20.40
2016,08,20,00,33,20.30
2016,08,20,00,34,20.30
2016,08,20,00,35,20.30
2016,08,20,00,36,20.30
2016,08,20,00,37,20.30
2016,08,20,00,38,20.30
2016,08,20,00,39,20.30
2016,08,20,00,40,20.30
2016,08,20,00,41,20.30
2016,08,20,00,42,20.30
2016,08,20,00,43,20.30
2016,08,20,00,44,20.30
2016,08,20,00,45,20.20
2016,08,20,00,46,20.20
2016,08,20,00,47,20.20
2016,08,20,00,48,20.20
2016,08,20,00,49,20.30
2016,08,20,00,50,20.30
2016,08,20,00,51,20.30
2016,08,20,00,52,20.30
2016,08,20,00,53,20.30
2016,08,20,00,54,20.30
2016,08,20,00,55,20.30
2016,08,20,00,56,20.30
2016,08,20,00,57,20.30
2016,08,20,00,58,20.20
2016,08,20,00,59,20.20
2016,08,20,01,00,20.20
2016,08,20,01,01,20.20
2016,08,20,01,02,20.20
2016,08,20,01,03,20.10
2016,08,20,01,04,20.10
2016,08,20,01,05,20.10
2016,08,20,01,06,20.00
2016,08,20,01,07,20.00
2016,08,20,01,08,19.90
2016,08,20,01,09,19.90
2016,08,20,01,10,19.80
2016,08,20,01,11,19.80
2016,08,20,01,12,19.70
2016,08,20,01,13,19.70
2016,08,20,01,14,19.60
2016,08,20,01,15,19.60
2016,08,20,01,16,19.60
2016,08,20,01,17,19.70
2016,08,20,01,18,19.70
2016,08,20,01,19,19.70
2016,08,20,01,20,19.80
2016,08,20,01,21,19.80
2016,08,20,01,22,19.80
2016,08,20,01,23,19.80
2016,08,20,01,24,19.70
2016,08,20,01,25,19.70
2016,08,20,01,26,19.70
2016,08,20,01,27,19.70
2016,08,20,01,28,19.70
2016,08,20,01,29,19.70
2016,08,20,01,30,19.70
2016,08,20,01,31,19.70
2016,08,20,01,32,19.70
2016,08,20,01,33,19.70
2016,08,20,01,34,19.60
2016,08,20,01,35,19.60
2016,08,20,01,36,19.60
2016,08,20,01,37,19.50
2016,08,20,01,38,19.50
2016,08,20,01,39,19.50
2016,08,20,01,40,19.40
2016,08,20,01,41,19.40
2016,08,20,01,42,19.40
2016,08,20,01,43,19.40
2016,08,20,01,44,19.40
2016,08,20,01,45,19.40
2016,08,20,01,46,19.50
2016,08,20,01,47,19.50
2016,08,20,01,48,19.50
2016,08,20,01,49,19.60
2016,08,20,01,50,19.60
2016,08,20,01,51,19.60
2016,08,20,01,52,19.60
2016,08,20,01,53,19.60
2016,08,20,01,54,19.60
2016,08,20,01,55,19.60
2016,08,20,01,56,19.60
2016,08,20,01,57,19.60
2016,08,20,01,58,19.50
2016,08,20,01,59,19.50
2016,08,20,02,00,19.40
2016,08,20,02,01,19.40
2016,08,20,02,02,19.40
2016,08,20,02,03,19.30
2016,08,20,02,04,19.30
2016,08,20,02,05,19.30
2016,08,20,02,06,19.30
2016,08,20,02,07,19.30
2016,08,20,02,08,19.20
2016,08,20,02,09,19.20
2016,08,20,02,10,19.20
2016,08,20,02,11,19.20
2016,08,20,02,12,19.20
2016,08,20,02,13,19.10
2016,08,20,02,14,19.10
2016,08,20,02,15,19.10
2016,08,20,02,16,19.00
2016,08,20,02,17,18.90
2016,08,20,02,18,18.90
2016,08,20,02,19,18.90
2016,08,20,02,20,18.80
2016,08,20,02,21,18.80
2016,08,20,02,22,18.80
2016,08,20,02,23,18.80
2016,08,20,02,24,18.70
2016,08,20,02,25,18.70
2016,08,20,02,26,18.60
2016,08,20,02,27,18.60
2016,08,20,02,28,18.60
2016,08,20,02,29,18.50
2016,08,20,02,30,18.50
2016,08,20,02,31,18.50
2016,08,20,02,32,18.40
2016,08,20,02,33,18.40
2016,08,20,02,34,18.40
2016,08,20,02,35,18.40
2016,08,20,02,36,18.30
2016,08,20,02,37,18.30
2016,08,20,02,38,18.30
2016,08,20,02,39,18.30
2016,08,20,02,40,18.20
2016,08,20,02,41,18.20
2016,08,20,02,42,18.20
2016,08,20,02,43,18.20
2016,08,20,02,44,18.20
2016,08,20,02,45,18.20
2016,08,20,02,46,18.20
2016,08,20,02,47,18.20
2016,08,20,02,48,18.20
2016,08,20,02,49,18.20
2016,08,20,02,50,18.30
2016,08,20,02,51,18.30
2016,08,20,02,52,18.30
2016,08,20,02,53,18.30
2016,08,20,02,54,18.30
2016,08,20,02,55,18.40
2016,08,20,02,56,18.40
2016,08,20,02,57,18.40
2016,08,20,02,58,18.50
2016,08,20,02,59,18.50
2016,08,20,03,00,18.50
2016,08,20,03,01,18.40
2016,08,20,03,02,18.40
2016,08,20,03,03,18.40
2016,08,20,03,04,18.40
2016,08,20,03,05,18.30
2016,08,20,03,06,18.30
2016,08,20,03,07,18.30
2016,08,20,03,08,18.30
2016,08,20,03,09,18.30
2016,08,20,03,10,18.30
2016,08,20,03,11,18.30
2016,08,20,03,12,18.20
2016,08,20,03,13,18.20
2016,08,20,03,14,18.20
2016,08,20,03,15,18.20
2016,08,20,03,16,18.10
2016,08,20,03,17,18.10
2016,08,20,03,18,18.10
2016,08,20,03,19,18.10
2016,08,20,03,20,18.00
2016,08,20,03,21,18.00
2016,08,20,03,22,18.00
2016,08,20,03,23,17.90
2016,08,20,03,24,17.90
2016,08,20,03,25,17.90
2016,08,20,03,26,17.90
2016,08,20,03,27,17.90
2016,08,20,03,28,17.90
2016,08,20,03,29,17.90
2016,08,20,03,30,17.90
2016,08,20,03,31,17.90
2016,08,20,03,32,17.90
2016,08,20,03,33,17.90
2016,08,20,03,34,18.00
2016,08,20,03,35,18.00
2016,08,20,03,36,18.10
2016,08,20,03,37,18.10
2016,08,20,03,38,18.10
2016,08,20,03,39,18.20
2016,08,20,03,40,18.20
2016,08,20,03,41,18.30
2016,08,20,03,42,18.30
2016,08,20,03,43,18.30
2016,08,20,03,44,18.30
2016,08,20,03,45,18.30
2016,08,20,03,46,18.30
2016,08,20,03,47,18.30
2016,08,20,03,48,18.30
2016,08,20,03,49,18.30
2016,08,20,03,50,18.30
2016,08,20,03,51,18.30
2016,08,20,03,52,18.30
2016,08,20,03,53,18.30
2016,08,20,03,54,18.20
2016,08,20,03,55,18.20
2016,08,20,03,56,18.20
2016,08,20,03,57,18.20
2016,08,20,03,58,18.20
2016,08,20,03,59,18.20
2016,08,20,04,00,18.20
2016,08,20,04,01,18.20
2016,08,20,04,02,18.20
2016,08,20,04,03,18.10
2016,08,20,04,04,18.10
2016,08,20,04,05,18.10
2016,08,20,04,06,18.10
2016,08,20,04,07,18.10
2016,08,20,04,08,18.10
2016,08,20,04,09,18.10
2016,08,20,04,10,18.10
2016,08,20,04,11,18.10
2016,08,20,04,12,18.10
2016,08,20,04,13,18.10
2016,08,20,04,14,18.10
2016,08,20,04,15,18.10
2016,08,20,04,16,18.10
2016,08,20,04,17,18.20
2016,08,20,04,18,18.20
2016,08,20,04,19,18.30
2016,08,20,04,20,18.40
2016,08,20,04,21,18.50
2016,08,20,04,22,18.50
2016,08,20,04,23,18.60
2016,08,20,04,24,18.60
2016,08,20,04,25,18.60
2016,08,20,04,26,18.60
2016,08,20,04,27,18.60
2016,08,20,04,28,18.60
2016,08,20,04,29,18.60
2016,08,20,04,30,18.60
2016,08,20,04,31,18.60
2016,08,20,04,32,18.70
2016,08,20,04,33,18.70
2016,08,20,04,34,18.80
2016,08,20,04,35,18.90
2016,08,20,04,36,19.00
2016,08,20,04,37,19.10
2016,08,20,04,38,19.20
2016,08,20,04,39,19.20
2016,08,20,04,40,19.20
2016,08,20,04,41,19.10
2016,08,20,04,42,19.00
2016,08,20,04,43,18.90
2016,08,20,04,44,18.90
2016,08,20,04,45,18.80
2016,08,20,04,46,18.70
2016,08,20,04,47,18.60
2016,08,20,04,48,18.50
2016,08,20,04,49,18.50
2016,08,20,04,50,18.40
2016,08,20,04,51,18.30
2016,08,20,04,52,18.30
2016,08,20,04,53,18.20
2016,08,20,04,54,18.20
2016,08,20,04,55,18.20
2016,08,20,04,56,18.10
2016,08,20,04,57,18.00
2016,08,20,04,58,17.90
2016,08,20,04,59,17.90
2016,08,20,05,00,17.80
2016,08,20,05,01,17.80
2016,08,20,05,02,17.70
2016,08,20,05,03,17.70
2016,08,20,05,04,17.60
2016,08,20,05,05,17.60
2016,08,20,05,06,17.60
2016,08,20,05,07,17.60
2016,08,20,05,08,17.60
2016,08,20,05,09,17.60
2016,08,20,05,10,17.60
2016,08,20,05,11,17.60
2016,08,20,05,12,17.60
2016,08,20,05,13,17.60
2016,08,20,05,14,17.50
2016,08,20,05,15,17.50
2016,08,20,05,16,17.40
2016,08,20,05,17,17.40
2016,08,20,05,18,17.40
2016,08,20,05,19,17.30
2016,08,20,05,20,17.30
2016,08,20,05,21,17.20
2016,08,20,05,22,17.20
2016,08,20,05,23,17.20
2016,08,20,05,24,17.10
2016,08,20,05,25,17.10
2016,08,20,05,26,17.00
2016,08,20,05,27,17.00
2016,08,20,05,28,16.90
2016,08,20,05,29,16.90
2016,08,20,05,30,16.80
2016,08,20,05,31,16.80
2016,08,20,05,32,16.70
2016,08,20,05,33,16.70
2016,08,20,05,34,16.60
2016,08,20,05,35,16.60
2016,08,20,05,36,16.50
2016,08,20,05,37,16.50
2016,08,20,05,38,16.40
2016,08,20,05,39,16.40
2016,08,20,05,40,16.40
2016,08,20,05,41,16.30
2016,08,20,05,42,16.30
2016,08,20,05,43,16.30
2016,08,20,05,44,16.20
2016,08,20,05,45,16.20
2016,08,20,05,46,16.20
2016,08,20,05,47,16.10
2016,08,20,05,48,16.10
2016,08,20,05,49,16.00
2016,08,20,05,50,16.00
2016,08,20,05,51,15.90
2016,08,20,05,52,15.90
2016,08,20,05,53,15.90
2016,08,20,05,54,15.90
2016,08,20,05,55,15.80
2016,08,20,05,56,15.80
2016,08,20,05,57,15.80
2016,08,20,05,58,15.80
2016,08,20,05,59,15.70
2016,08,20,06,00,15.70
2016,08,20,06,01,15.70
2016,08,20,06,02,15.70
2016,08,20,06,03,15.60
2016,08,20,06,04,15.60
2016,08,20,06,05,15.60
2016,08,20,06,06,15.50
2016,08,20,06,07,15.50
2016,08,20,06,08,15.50
2016,08,20,06,09,15.40
2016,08,20,06,10,15.40
2016,08,20,06,11,15.40
2016,08,20,06,12,15.40
2016,08,20,06,13,15.40
2016,08,20,06,14,15.40
2016,08,20,06,15,15.40
2016,08,20,06,16,15.40
2016,08,20,06,17,15.30
2016,08,20,06,18,15.30
2016,08,20,06,19,15.30
2016,08,20,06,20,15.30
2016,08,20,06,21,15.30
2016,08,20,06,22,15.30
2016,08,20,06,23,15.40
2016,08,20,06,24,15.40
2016,08,20,06,25,15.40
2016,08,20,06,26,15.40
2016,08,20,06,27,15.40
2016,08,20,06,28,15.40
2016,08,20,06,29,15.30
2016,08,20,06,30,15.30
2016,08,20,06,31,15.30
2016,08,20,06,32,15.30
2016,08,20,06,33,15.30
2016,08,20,06,34,15.30
2016,08,20,06,35,15.30
2016,08,20,06,36,15.30
2016,08,20,06,37,15.40
2016,08,20,06,38,15.40
2016,08,20,06,39,15.40
2016,08,20,06,40,15.50
2016,08,20,06,41,15.50
2016,08,20,06,42,15.50
2016,08,20,06,43,15.50
2016,08,20,06,44,15.50
2016,08,20,06,45,15.50
2016,08,20,06,46,15.50
2016,08,20,06,47,15.40
2016,08,20,06,48,15.40
2016,08,20,06,49,15.40
2016,08,20,06,50,15.40
2016,08,20,06,51,15.40
2016,08,20,06,52,15.40
2016,08,20,06,53,15.40
2016,08,20,06,54,15.40
2016,08,20,06,55,15.40
2016,08,20,06,56,15.40
2016,08,20,06,57,15.40
2016,08,20,06,58,15.40
2016,08,20,06,59,15.40
2016,08,20,07,00,15.50
2016,08,20,07,01,15.50
2016,08,20,07,02,15.50
2016,08,20,07,03,15.60
2016,08,20,07,04,15.60
2016,08,20,07,05,15.70
2016,08,20,07,06,15.70
2016,08,20,07,07,15.80
2016,08,20,07,08,15.90
2016,08,20,07,09,15.90
2016,08,20,07,10,16.00
2016,08,20,07,11,16.10
2016,08,20,07,12,16.20
2016,08,20,07,13,16.30
2016,08,20,07,14,16.30
2016,08,20,07,15,16.40
2016,08,20,07,16,16.40
2016,08,20,07,17,16.50
2016,08,20,07,18,16.60
2016,08,20,07,19,16.60
2016,08,20,07,20,16.60
2016,08,20,07,21,16.70
2016,08,20,07,22,16.70
2016,08,20,07,23,16.80
2016,08,20,07,24,16.80
2016,08,20,07,25,16.90
2016,08,20,07,26,16.90
2016,08,20,07,27,17.00
2016,08,20,07,28,17.00
2016,08,20,07,29,17.10
2016,08,20,07,30,17.10
2016,08,20,07,31,17.20
2016,08,20,07,32,17.20
2016,08,20,07,33,17.30
2016,08,20,07,34,17.40
2016,08,20,07,35,17.40
2016,08,20,07,36,17.50
2016,08,20,07,37,17.60
2016,08,20,07,38,17.70
2016,08,20,07,39,17.80
2016,08,20,07,40,17.90
2016,08,20,07,41,18.00
2016,08,20,07,42,18.20
2016,08,20,07,43,18.30
2016,08,20,07,44,18.40
2016,08,20,07,45,18.50
2016,08,20,07,46,18.60
2016,08,20,07,47,18.70
2016,08,20,07,48,18.80
2016,08,20,07,49,19.00
2016,08,20,07,50,19.10
2016,08,20,07,51,19.20
2016,08,20,07,52,19.40
2016,08,20,07,53,19.60
2016,08,20,07,54,19.80
2016,08,20,07,55,20.00
2016,08,20,07,56,20.20
2016,08,20,07,57,20.40
2016,08,20,07,58,20.50
2016,08,20,07,59,20.70
2016,08,20,08,00,20.80
2016,08,20,08,01,20.90
2016,08,20,08,02,20.90
2016,08,20,08,03,20.90
2016,08,20,08,04,20.90
2016,08,20,08,05,21.00
2016,08,20,08,06,21.00
2016,08,20,08,07,21.00
2016,08,20,08,08,21.00
2016,08,20,08,09,21.00
2016,08,20,08,10,21.00
2016,08,20,08,11,21.00
2016,08,20,08,12,21.00
2016,08,20,08,13,21.00
2016,08,20,08,14,21.00
2016,08,20,08,15,21.10
2016,08,20,08,16,21.10
2016,08,20,08,17,21.10
2016,08,20,08,18,21.20
2016,08,20,08,19,21.20
2016,08,20,08,20,21.20
2016,08,20,08,21,21.30
2016,08,20,08,22,21.30
2016,08,20,08,23,21.30
2016,08,20,08,24,21.30
2016,08,20,08,25,21.30
2016,08,20,08,26,21.40
2016,08,20,08,27,21.50
2016,08,20,08,28,21.50
2016,08,20,08,29,21.60
2016,08,20,08,30,21.50
2016,08,20,08,31,21.50
2016,08,20,08,32,21.40
2016,08,20,08,33,21.40
2016,08,20,08,34,21.40
2016,08,20,08,35,21.40
2016,08,20,08,36,21.50
2016,08,20,08,37,21.50
2016,08,20,08,38,21.60
2016,08,20,08,39,21.60
2016,08,20,08,40,21.70
2016,08,20,08,41,21.70
2016,08,20,08,42,21.70
2016,08,20,08,43,21.70
2016,08,20,08,44,21.80
2016,08,20,08,45,21.80
2016,08,20,08,46,21.80
2016,08,20,08,47,21.80
2016,08,20,08,48,21.90
2016,08,20,08,49,21.90
2016,08,20,08,50,22.00
2016,08,20,08,51,22.00
2016,08,20,08,52,22.00
2016,08,20,08,53,21.90
2016,08,20,08,54,21.80
2016,08,20,08,55,21.80
2016,08,20,08,56,21.90
2016,08,20,08,57,21.90
2016,08,20,08,58,21.90
2016,08,20,08,59,21.90
2016,08,20,09,00,22.00
2016,08,20,09,01,22.00
2016,08,20,09,02,22.00
2016,08,20,09,03,22.10
2016,08,20,09,04,22.10
2016,08,20,09,05,22.10
2016,08,20,09,06,22.10
2016,08,20,09,07,22.00
2016,08,20,09,08,21.90
2016,08,20,09,09,21.90
2016,08,20,09,10,21.90
2016,08,20,09,11,22.00
2016,08,20,09,12,22.00
2016,08,20,09,13,22.10
2016,08,20,09,14,22.20
2016,08,20,09,15,22.30
2016,08,20,09,16,22.30
2016,08,20,09,17,22.30
2016,08,20,09,18,22.30
2016,08,20,09,19,22.30
2016,08,20,09,20,22.30
2016,08,20,09,21,22.30
2016,08,20,09,22,22.40
2016,08,20,09,23,22.40
2016,08,20,09,24,22.40
2016,08,20,09,25,22.50
2016,08,20,09,26,22.40
2016,08,20,09,27,22.30
2016,08,20,09,28,22.20
2016,08,20,09,29,22.10
2016,08,20,09,30,22.10
2016,08,20,09,31,22.00
2016,08,20,09,32,22.00
2016,08,20,09,33,22.10
2016,08,20,09,34,22.00
2016,08,20,09,35,22.10
2016,08,20,09,36,22.00
2016,08,20,09,37,22.10
2016,08,20,09,38,22.00
2016,08,20,09,39,22.00
2016,08,20,09,40,22.00
2016,08,20,09,41,22.10
2016,08,20,09,42,22.10
2016,08,20,09,43,22.20
2016,08,20,09,44,22.20
2016,08,20,09,45,22.20
2016,08,20,09,46,22.20
2016,08,20,09,47,22.10
2016,08,20,09,48,22.20
2016,08,20,09,49,22.10
2016,08,20,09,50,22.00
2016,08,20,09,51,21.90
2016,08,20,09,52,21.80
2016,08,20,09,53,21.80
2016,08,20,09,54,21.80
2016,08,20,09,55,21.80
2016,08,20,09,56,21.80
2016,08,20,09,57,21.80
2016,08,20,09,58,21.80
2016,08,20,09,59,21.90
2016,08,20,10,00,21.90
2016,08,20,10,01,22.00
2016,08,20,10,02,22.10
2016,08,20,10,03,22.20
2016,08,20,10,04,22.20
2016,08,20,10,05,22.20
2016,08,20,10,06,22.30
2016,08,20,10,07,22.30
2016,08,20,10,08,22.40
2016,08,20,10,09,22.40
2016,08,20,10,10,22.40
2016,08,20,10,11,22.50
2016,08,20,10,12,22.60
2016,08,20,10,13,22.60
2016,08,20,10,14,22.70
2016,08,20,10,15,22.80
2016,08,20,10,16,22.80
2016,08,20,10,17,22.80
2016,08,20,10,18,22.70
2016,08,20,10,19,22.70
2016,08,20,10,20,22.70
2016,08,20,10,21,22.70
2016,08,20,10,22,22.70
2016,08,20,10,23,22.70
2016,08,20,10,24,22.70
2016,08,20,10,25,22.60
2016,08,20,10,26,22.50
2016,08,20,10,27,22.50
2016,08,20,10,28,22.40
2016,08,20,10,29,22.30
2016,08,20,10,30,22.30
2016,08,20,10,31,22.40
2016,08,20,10,32,22.50
2016,08,20,10,33,22.50
2016,08,20,10,34,22.60
2016,08,20,10,35,22.70
2016,08,20,10,36,22.80
2016,08,20,10,37,22.80
2016,08,20,10,38,22.70
2016,08,20,10,39,22.60
2016,08,20,10,40,22.40
2016,08,20,10,41,22.40
2016,08,20,10,42,22.40
2016,08,20,10,43,22.40
2016,08,20,10,44,22.40
2016,08,20,10,45,22.40
2016,08,20,10,46,22.50
2016,08,20,10,47,22.60
2016,08,20,10,48,22.60
2016,08,20,10,49,22.70
2016,08,20,10,50,22.80
2016,08,20,10,51,22.80
2016,08,20,10,52,22.80
2016,08,20,10,53,22.80
2016,08,20,10,54,22.80
2016,08,20,10,55,22.80
2016,08,20,10,56,22.80
2016,08,20,10,57,22.80
2016,08,20,10,58,22.90
2016,08,20,10,59,22.80
2016,08,20,11,00,22.80
2016,08,20,11,01,22.90
2016,08,20,11,02,23.00
2016,08,20,11,03,23.00
2016,08,20,11,04,23.00
2016,08,20,11,05,23.10
2016,08,20,11,06,23.20
2016,08,20,11,07,23.20
2016,08,20,11,08,23.20
2016,08,20,11,09,23.20
2016,08,20,11,10,23.20
2016,08,20,11,11,23.20
2016,08,20,11,12,23.20
2016,08,20,11,13,23.20
2016,08,20,11,14,23.20
2016,08,20,11,15,23.20
2016,08,20,11,16,23.30
2016,08,20,11,17,23.30
2016,08,20,11,18,23.30
2016,08,20,11,19,23.40
2016,08,20,11,20,23.40
2016,08,20,11,21,23.50
2016,08,20,11,22,23.60
2016,08,20,11,23,23.70
2016,08,20,11,24,23.50
2016,08,20,11,25,23.30
2016,08,20,11,26,23.20
2016,08,20,11,27,23.10
2016,08,20,11,28,23.10
2016,08,20,11,29,23.10
2016,08,20,11,30,23.10
2016,08,20,11,31,23.20
2016,08,20,11,32,23.20
2016,08,20,11,33,23.30
2016,08,20,11,34,23.40
2016,08,20,11,35,23.50
2016,08,20,11,36,23.70
2016,08,20,11,37,23.70
2016,08,20,11,38,23.80
2016,08,20,11,39,23.70
2016,08,20,11,40,23.50
2016,08,20,11,41,23.30
2016,08,20,11,42,23.10
2016,08,20,11,43,23.00
2016,08,20,11,44,22.90
2016,08,20,11,45,22.80
2016,08,20,11,46,22.80
2016,08,20,11,47,22.60
2016,08,20,11,48,22.60
2016,08,20,11,49,22.60
2016,08,20,11,50,22.60
2016,08,20,11,51,22.70
2016,08,20,11,52,22.70
2016,08,20,11,53,22.70
2016,08,20,11,54,22.70
2016,08,20,11,55,22.70
2016,08,20,11,56,22.60
2016,08,20,11,57,22.60
2016,08,20,11,58,22.60
2016,08,20,11,59,22.60
2016,08,20,12,00,22.50
2016,08,20,12,01,22.50
2016,08,20,12,02,22.50
2016,08,20,12,03,22.50
2016,08,20,12,04,22.50
2016,08,20,12,05,22.60
2016,08,20,12,06,22.60
2016,08,20,12,07,22.60
2016,08,20,12,08,22.70
2016,08,20,12,09,22.60
2016,08,20,12,10,22.60
2016,08,20,12,11,22.60
2016,08,20,12,12,22.60
2016,08,20,12,13,22.70
2016,08,20,12,14,22.70
2016,08,20,12,15,22.80
2016,08,20,12,16,22.90
2016,08,20,12,17,23.00
2016,08,20,12,18,23.00
2016,08,20,12,19,23.10
2016,08,20,12,20,23.10
2016,08,20,12,21,23.00
2016,08,20,12,22,23.00
2016,08,20,12,23,23.00
2016,08,20,12,24,23.00
2016,08,20,12,25,23.00
2016,08,20,12,26,22.90
2016,08,20,12,27,22.90
2016,08,20,12,28,22.80
2016,08,20,12,29,22.80
2016,08,20,12,30,22.80
2016,08,20,12,31,22.80
2016,08,20,12,32,22.80
2016,08,20,12,33,22.80
2016,08,20,12,34,22.80
2016,08,20,12,35,22.90
2016,08,20,12,36,22.90
2016,08,20,12,37,23.00
2016,08,20,12,38,23.00
2016,08,20,12,39,23.00
2016,08,20,12,40,23.10
2016,08,20,12,41,23.10
2016,08,20,12,42,23.30
2016,08,20,12,43,23.40
2016,08,20,12,44,23.40
2016,08,20,12,45,23.40
2016,08,20,12,46,23.40
2016,08,20,12,47,23.40
2016,08,20,12,48,23.50
2016,08,20,12,49,23.60
2016,08,20,12,50,23.70
2016,08,20,12,51,23.80
2016,08,20,12,52,23.90
2016,08,20,12,53,24.10
2016,08,20,12,54,24.20
2016,08,20,12,55,24.30
2016,08,20,12,56,24.40
2016,08,20,12,57,24.50
2016,08,20,12,58,24.60
2016,08,20,12,59,24.70
2016,08,20,13,00,24.70
2016,08,20,13,01,24.80
2016,08,20,13,02,24.70
2016,08,20,13,03,24.60
2016,08,20,13,04,24.60
2016,08,20,13,05,24.50
2016,08,20,13,06,24.40
2016,08,20,13,07,24.30
2016,08,20,13,08,24.30
2016,08,20,13,09,24.20
2016,08,20,13,10,24.10
2016,08,20,13,11,24.10
2016,08,20,13,12,24.10
2016,08,20,13,13,24.10
2016,08,20,13,14,24.20
2016,08,20,13,15,24.30
2016,08,20,13,16,24.30
2016,08,20,13,17,24.30
2016,08,20,13,18,24.20
2016,08,20,13,19,24.30
2016,08,20,13,20,24.30
2016,08,20,13,21,24.20
2016,08,20,13,22,24.20
2016,08,20,13,23,24.20
2016,08,20,13,24,24.30
2016,08,20,13,25,24.40
2016,08,20,13,26,24.40
2016,08,20,13,27,24.50
2016,08,20,13,28,24.60
2016,08,20,13,29,24.70
2016,08,20,13,30,24.70
2016,08,20,13,31,24.60
2016,08,20,13,32,24.40
2016,08,20,13,33,24.40
2016,08,20,13,34,24.40
2016,08,20,13,35,24.30
2016,08,20,13,36,24.40
2016,08,20,13,37,24.40
2016,08,20,13,38,24.50
2016,08,20,13,39,24.60
2016,08,20,13,40,24.70
2016,08,20,13,41,24.80
2016,08,20,13,42,24.90
2016,08,20,13,43,24.90
2016,08,20,13,44,25.00
2016,08,20,13,45,25.00
2016,08,20,13,46,24.90
2016,08,20,13,47,24.80
2016,08,20,13,48,24.70
2016,08,20,13,49,24.70
2016,08,20,13,50,24.80
2016,08,20,13,51,24.80
2016,08,20,13,52,24.90
2016,08,20,13,53,25.00
2016,08,20,13,54,25.10
2016,08,20,13,55,25.20
2016,08,20,13,56,25.30
2016,08,20,13,57,25.40
2016,08,20,13,58,25.40
2016,08,20,13,59,25.30
2016,08,20,14,00,25.20
2016,08,20,14,01,25.00
2016,08,20,14,02,25.00
2016,08,20,14,03,25.00
2016,08,20,14,04,24.90
2016,08,20,14,05,25.00
2016,08,20,14,06,25.10
2016,08,20,14,07,25.00
2016,08,20,14,08,24.90
2016,08,20,14,09,24.80
2016,08,20,14,10,24.80
2016,08,20,14,11,24.90
2016,08,20,14,12,24.90
2016,08,20,14,13,24.90
2016,08,20,14,14,24.90
2016,08,20,14,15,24.80
2016,08,20,14,16,24.80
2016,08,20,14,17,24.80
2016,08,20,14,18,24.90
2016,08,20,14,19,24.90
2016,08,20,14,20,24.80
2016,08,20,14,21,24.80
2016,08,20,14,22,24.90
2016,08,20,14,23,24.90
2016,08,20,14,24,25.00
2016,08,20,14,25,25.20
2016,08,20,14,26,25.20
2016,08,20,14,27,25.10
2016,08,20,14,28,25.10
2016,08,20,14,29,25.10
2016,08,20,14,30,25.00
2016,08,20,14,31,25.00
2016,08,20,14,32,24.90
2016,08,20,14,33,24.80
2016,08,20,14,34,24.80
2016,08,20,14,35,24.90
2016,08,20,14,36,24.90
2016,08,20,14,37,25.00
2016,08,20,14,38,25.10
2016,08,20,14,39,25.10
2016,08,20,14,40,25.20
2016,08,20,14,41,25.30
2016,08,20,14,42,25.30
2016,08,20,14,43,25.40
2016,08,20,14,44,25.40
2016,08,20,14,45,25.40
2016,08,20,14,46,25.20
2016,08,20,14,47,25.10
2016,08,20,14,48,24.90
2016,08,20,14,49,24.80
2016,08,20,14,50,24.80
2016,08,20,14,51,24.70
2016,08,20,14,52,24.80
2016,08,20,14,53,24.90
2016,08,20,14,54,25.00
2016,08,20,14,55,25.10
2016,08,20,14,56,25.10
2016,08,20,14,57,25.20
2016,08,20,14,58,25.30
2016,08,20,14,59,25.40
2016,08,20,15,00,25.50
2016,08,20,15,01,25.60
2016,08,20,15,02,25.60
2016,08,20,15,03,25.60
2016,08,20,15,04,25.70
2016,08,20,15,05,25.80
2016,08,20,15,06,25.90
2016,08,20,15,07,25.90
2016,08,20,15,08,25.90
2016,08,20,15,09,25.70
2016,08,20,15,10,25.70
2016,08,20,15,11,25.70
2016,08,20,15,12,25.60
2016,08,20,15,13,25.50
2016,08,20,15,14,25.50
2016,08,20,15,15,25.50
2016,08,20,15,16,25.60
2016,08,20,15,17,25.60
2016,08,20,15,18,25.60
2016,08,20,15,19,25.70
2016,08,20,15,20,25.70
2016,08,20,15,21,25.80
2016,08,20,15,22,25.90
2016,08,20,15,23,25.90
2016,08,20,15,24,26.00
2016,08,20,15,25,26.10
2016,08,20,15,26,26.10
2016,08,20,15,27,26.20
2016,08,20,15,28,26.20
2016,08,20,15,29,26.20
2016,08,20,15,30,26.20
2016,08,20,15,31,26.20
2016,08,20,15,32,26.10
2016,08,20,15,33,26.10
2016,08,20,15,34,26.00
2016,08,20,15,35,25.90
2016,08,20,15,36,25.90
2016,08,20,15,37,25.90
2016,08,20,15,38,26.00
2016,08,20,15,39,25.90
2016,08,20,15,40,25.80
2016,08,20,15,41,25.90
2016,08,20,15,42,25.90
2016,08,20,15,43,25.90
2016,08,20,15,44,25.90
2016,08,20,15,45,25.90
2016,08,20,15,46,25.90
2016,08,20,15,47,25.90
2016,08,20,15,48,25.90
2016,08,20,15,49,25.90
2016,08,20,15,50,25.90
2016,08,20,15,51,25.90
2016,08,20,15,52,25.90
2016,08,20,15,53,25.90
2016,08,20,15,54,26.00
2016,08,20,15,55,26.10
2016,08,20,15,56,26.20
2016,08,20,15,57,26.30
2016,08,20,15,58,26.30
2016,08,20,15,59,26.40
2016,08,20,16,00,26.50
2016,08,20,16,01,26.50
2016,08,20,16,02,26.60
2016,08,20,16,03,26.50
2016,08,20,16,04,26.40
2016,08,20,16,05,26.30
2016,08,20,16,06,26.30
2016,08,20,16,07,26.30
2016,08,20,16,08,26.30
2016,08,20,16,09,26.30
2016,08,20,16,10,26.40
2016,08,20,16,11,26.40
2016,08,20,16,12,26.40
2016,08,20,16,13,26.40
2016,08,20,16,14,26.40
2016,08,20,16,15,26.40
2016,08,20,16,16,26.30
2016,08,20,16,17,26.30
2016,08,20,16,18,26.30
2016,08,20,16,19,26.40
2016,08,20,16,20,26.40
2016,08,20,16,21,26.40
2016,08,20,16,22,26.50
2016,08,20,16,23,26.60
2016,08,20,16,24,26.70
2016,08,20,16,25,26.90
2016,08,20,16,26,27.00
2016,08,20,16,27,27.20
2016,08,20,16,28,27.30
2016,08,20,16,29,27.40
2016,08,20,16,30,27.50
2016,08,20,16,31,27.50
2016,08,20,16,32,27.50
2016,08,20,16,33,27.40
2016,08,20,16,34,27.40
2016,08,20,16,35,27.40
2016,08,20,16,36,27.30
2016,08,20,16,37,27.40
2016,08,20,16,38,27.40
2016,08,20,16,39,27.40
2016,08,20,16,40,27.50
2016,08,20,16,41,27.60
2016,08,20,16,42,27.60
2016,08,20,16,43,27.60
2016,08,20,16,44,27.50
2016,08,20,16,45,27.40
2016,08,20,16,46,27.40
2016,08,20,16,47,27.40
2016,08,20,16,48,27.30
2016,08,20,16,49,27.30
2016,08,20,16,50,27.30
2016,08,20,16,51,27.30
2016,08,20,16,52,27.30
2016,08,20,16,53,27.30
2016,08,20,16,54,27.40
2016,08,20,16,55,27.40
2016,08,20,16,56,27.50
2016,08,20,16,57,27.40
2016,08,20,16,58,27.40
2016,08,20,16,59,27.50
2016,08,20,17,00,27.60
2016,08,20,17,01,27.60
2016,08,20,17,02,27.70
2016,08,20,17,03,27.70
2016,08,20,17,04,27.70
2016,08,20,17,05,27.60
2016,08,20,17,06,27.50
2016,08,20,17,07,27.50
2016,08,20,17,08,27.40
2016,08,20,17,09,27.40
2016,08,20,17,10,27.50
2016,08,20,17,11,27.50
2016,08,20,17,12,27.60
2016,08,20,17,13,27.60
2016,08,20,17,14,27.60
2016,08,20,17,15,27.70
2016,08,20,17,16,27.70
2016,08,20,17,17,27.70
2016,08,20,17,18,27.70
2016,08,20,17,19,27.70